User: anonymous   Login
Location: Unspecified
(0.0000°N, 0.0000°E)
Time: 19:01:59
(UTC+00:00)
Language:

NADEZHDA 7 - Orbit

View from above orbital plane
View from above orbital plane
View from above satellite
View from above satellite

Ground track
Ground track

The orbit data is extracted from the following two-line orbital elements,

1 27534U 02046A   17084.95931483 +.00000051 +00000-0 +39229-4 0  9990
2 27534 082.9332 300.5705 0035823 339.4300 132.9284 13.72683153726174
Epoch (UTC): 25 March 2017 23:01:24
Eccentricity: 0.0035823
inclination: 82.9332°
perigee height: 963 km
apogee height: 1016 km
right ascension of ascending node: 300.5705°
argument of perigee: 339.4300°
revolutions per day: 13.72683153
mean anomaly at epoch: 132.9284°
orbit number at epoch: 72617

The dashed part of the orbit path shows where the satellite is in the earth's shadow,  

DLR